Back to catalog

BADR B

AliveCommunicationsSSO
NORAD 27003·PAYLOAD·🇵🇰 Pakistan

Launched Dec 10, 2001 from Baikonur Cosmodrome

Loading…

Next Passes (next 24 hours)

TLE

FreshSource: Space-Track

Epoch: Sep 14, 2026, 08:14 UTC

1 27003U 01056C   26257.34345723 -.00000038  00000-0  98556-5 0  9997
2 27003  99.8097  74.6835 0019459 268.4998  91.3919 13.70412459238150

Track BADR B in real time with AllMySat

Download on the App Store